Location: Ch�risy
(50.2331°N, 2.9131°E)
Time: 19:46:30
(UTC+00:00)

RESURS DK-1 - Pass Details

Date: 17 January 2021
Orbit: 557 x 560 km, 69.9° (Epoch: 27 February)

Event Time Altitude Azimuth Distance (km) Brightness Sun altitude
Rises 17:06:10 0° 188° (S) 2,731 6.3 -7.7°
Reaches altitude 10° 17:08:27 10° 180° (S) 1,840 5.3 -8.1°
Maximum altitude 17:12:16 38° 112° (ESE) 865 3.0 -8.6°
Drops below altitude 10° 17:16:06 10° 45° (NE) 1,853 4.4 -9.2°
Enters shadow 17:16:07 10° 44° (NE) 1,857 4.4 -9.2°
